AirNav   GEt a FREE Bose Revolve Bluetooth Speaker
 
 995 users online  

L47 Olla Airport
Olla, Louisiana, USA

GOING TO OLLA?


FAA INFORMATION EFFECTIVE 06 DECEMBER 2018

Location

FAA Identifier: L47
Lat/Long: 31-53-45.9500N / 092-13-04.3800W
31-53.765833N / 092-13.073000W
31.8960972 / -92.2178833
(estimated)
Elevation: 130 ft. / 40 m (estimated)
Variation: 04E (1985)
From city: 1 mile E of OLLA, LA
Time zone: UTC -6 (UTC -5 during Daylight Saving Time)
Zip code: 71465

Airport Operations

Airport use: Open to the public
Control tower: no
ARTCC: HOUSTON CENTER
FSS: DE RIDDER FLIGHT SERVICE STATION
NOTAMs facility: DRI (NOTAM-D service available)
Attendance: UNATNDD
Wind indicator: no
Segmented circle: no
Beacon: white-green (lighted land airport)
ROTG BCN OTS INDEFLY. Operates sunset to sunrise.

Airport Communications

CTAF: 122.9

Nearby radio navigation aids

VOR radial/distance  VOR name  Freq  Var
SWBr099/23.8SAWMILL VOR/DME113.7502E
MLUr191/38.4MONROE VORTAC117.2003E

Airport Services

Airframe service: NONE
Powerplant service: NONE
Bottled oxygen: NONE
Bulk oxygen: NONE

Runway Information

Runway 3/21

Dimensions: 3010 x 75 ft. / 917 x 23 m
Surface: asphalt, in poor condition
RY SFC CRACKED; DIP IN RY NEAR RY 03 END. 1-2 FT GRASS GROWING ON RY.
Weight bearing capacity: 
Single wheel: 9.0
Runway edge lights: NO RUNWAY EDGE LIGHTING.
Runway edge markings: DSPLCD THLD MARKINGS NON-STANDARD; NO CHEVRONS, ARROWS OR THLD BAR.
RUNWAY 3  RUNWAY 21
Latitude: 31-53.553167N31-53.978500N
Longitude: 092-13.223167W092-12.922833W
Gradient: 0.1%0.1%
Traffic pattern: leftleft
Displaced threshold: no190 ft.
Markings: basic, in poor conditionbasic, in poor condition
Runway end identifier lights: nono
Obstructions: 36 ft. trees, 534 ft. from runway, 90 ft. left of centerline, 9:1 slope to clear15 ft. road, marked, 215 ft. from runway, 1:1 slope to clear
APCH SLOPE TO DSPLD THLD 11:1. 76 FT TREES 303 FT LEFT OF CNTLN.

Airport Ownership and Management from official FAA records

Ownership: Publicly-owned
Owner: OLLA URANIA TULLOS STANDARD
PO BOX 223
OLLA, LA 71465
Phone 318-312-1106
ECONOMIC DEVELOPMENT DISTRICT
Manager: KARY RANDALL
PO BOX 3181
RUSTON, LA 71272
Phone 318-257-5478

Airport Operational Statistics

Aircraft based on the field: 1
Single engine airplanes: 1
    
Aircraft operations: avg 71/week *
68% local general aviation
32% transient general aviation
* for 12-month period ending 28 February 2018

Additional Remarks

APRON COND POOR.
PONDING ON RY & TWYS DURG HEAVY RAINS.
RY 03/21 75 FT TREES ALONG BOTH SIDES OF RY PENETRATE TRANSITION SLOPE.
ARPT CLSD NIGHTS.
RY 03 HAS A DIP 450 FT FM APCH END OF RY.
THIS AIRPORT IS OPEN FOR DAY VFR OPERATIONS ONLY.

Instrument Procedures

There are no published instrument procedures at L47.

Some nearby airports with instrument procedures:

0R5 - David G Joyce Airport (23 nm W)
KESF - Esler Regional Airport (30 nm S)
F88 - Jonesboro Airport (32 nm NW)
KMLU - Monroe Regional Airport (38 nm N)
KAEX - Alexandria International Airport (38 nm SW)
 
Loc | Ops | Rwys | IFR | FBO | Links
Com | Nav | Svcs | Stats | Notes


 
Area around L47 (Olla Airport)
 
Road maps at: MapQuest Bing Google
 
Aerial photo
WARNING: Photo may not be current or correct
Aerial photo of L47 (Olla Airport)
Photo by Bob Burns
Photo taken 02-Jan-2011
looking northwest.

Do you have a better or more recent aerial photo of Olla Airport that you would like to share? If so, please send us your photo.

 
Sectional chart

 
Airport distance calculator
Flying to Olla Airport? Find the distance to fly.

From to L47

Sunrise and sunset
Times for 15-Dec-2018
 Local
(UTC-6)
 Zulu
(UTC)
Morning civil twilight06:3612:36
Sunrise07:0313:03
Sunset17:0523:05
Evening civil twilight17:3223:32

Current date and time
Zulu (UTC)  15-Dec-2018 19:42:30
Local (UTC-6)  15-Dec-2018 13:42:30
 
METAR
KESF 
30nm S 
151917Z AUTO 27006KT 10SM FEW013 SCT024 OVC032 11/08 A3006 RMK AO2 T01060083
KAEX 
38nm SW 
151853Z 30011KT 10SM BKN024 OVC029 10/07 A3005 RMK AO2 RAB22E35 SLP182 P0000 T01000072
KMLU 
38nm N 
151853Z 29008KT 10SM BKN021 OVC028 10/08 A3005 RMK AO2 RAB18E30 SLP175 P0000 T01000078
K0R4 
41nm SE 
151915Z AUTO 27005KT 5SM BR OVC011 10/09 A3005 RMK AO2 T00960085
KRSN 
42nm NW 
151915Z AUTO 00000KT 10SM SCT012 OVC019 09/07 A3009 RMK AO2 T00900070
KIER 
46nm W 
151915Z AUTO 27007KT 7SM BKN010 OVC019 09/07 A3008 RMK AO2 T00900072
TAF
KAEX 
38nm SW 
151732Z 1518/1618 30008KT P6SM BKN015 FM160000 31005KT P6SM SCT025 FM160200 VRB05KT P6SM SKC
KMLU 
38nm N 
151733Z 1518/1618 30007KT P6SM OVC013 FM160000 31003KT P6SM OVC020 FM160600 32003KT P6SM BKN025 FM161100 VRB03KT 5SM BR SCT025 SCT300 FM161500 VRB03KT P6SM BKN280
NOTAMs
Click for the latest NOTAMs
NOTAMs are issued by the DoD/FAA and will open in a separate window not controlled by AirNav.

 

 
 

Would you like to see your business listed on this page?

 If your business provides an interesting product or service to pilots, flight crews, aircraft, or users of the Olla Airport, you should consider listing it here.  To start the listing process, click on the button below
 
Add a business
 

Other Pages about Olla Airport

Update a link
 
Copyright © AirNav, LLC. All rights reserved. Privacy Policy  Contact